Shaw AFB, SC

1:04 AM EDT on July 22, 2017 (GMT -0400)
Shaw Air Force Base

Weather History for KSSC - May, 2013

Change the Weather History Date:

Wednesday, May 1, 2013

  Actual Average Record
Temperature  
Mean Temperature 64 °F -  
Max Temperature 71 °F 75 °F 90 °F (2007)
Min Temperature 57 °F 53 °F 46 °F (1999)
Degree Days  
Heating Degree Days 1    
Growing Degree Days 14 (Base 50)    
Moisture  
Dew Point 54 °F    
Average Humidity 73    
Maximum Humidity 88    
Minimum Humidity 54    
Precipitation  
Precipitation 0.00 in - - ()
Sea Level Pressure  
Sea Level Pressure 30.18 in    
Wind  
Wind Speed 10 mph (NE)    
Max Wind Speed 16 mph    
Max Gust Speed 21 mph    
Visibility 10 miles    
Events Rain    
Averages and records for this station are not official NWS values.
T = Trace of Precipitation, MM = Missing Value Source: NWS Daily Summary

Daily Weather History Graph

Daily Weather History Graph

Search for Another Location

Airport or City:

Trip Planner

Search our weather history database for the weather conditions in past years. The results will help you decide how hot, cold, wet, or windy it might be!

Date:

Astronomy

May. 01, 2013 Rise Set
Actual Time 6:32 AM EDT 8:05 PM EDT
Civil Twilight 6:05 AM EDT 8:32 PM EDT
Nautical Twilight 5:33 AM EDT 9:04 PM EDT
Astronomical Twilight 5:00 AM EDT 9:38 PM EDT
Moon 1:13 AM EDT (5/1) 12:09 PM EDT (5/1)
Length of Visible Light 14h 26m
Length of Day
13h 33m
Waning Gibbous, 59% of the Moon is Illuminated
May 1
Waning Gibbous
May 2
Last Quarter
May 9
New
May 18
First Quarter
May 25
Full

Hourly Weather History & Observations

Time (EDT) Temp. Dew Point Humidity Pressure Visibility Wind Dir Wind Speed Gust Speed Precip Events Conditions
12:58 AM 61.2 °F 54.7 °F 79% 30.14 in 10.0 mi ENE 5.8 mph - N/A   Clear
1:58 AM 57.7 °F 53.2 °F 85% 30.13 in 10.0 mi NE 5.8 mph - N/A   Clear
2:58 AM 57.4 °F 53.8 °F 88% 30.12 in 10.0 mi NNE 6.9 mph - N/A   Clear
3:58 AM 57.4 °F 54.0 °F 88% 30.11 in 10.0 mi NNE 9.2 mph - N/A   Clear
4:58 AM 57.0 °F 52.9 °F 86% 30.13 in 10.0 mi NNE 6.9 mph - N/A   Clear
5:58 AM 57.7 °F 53.1 °F 84% 30.14 in 10.0 mi NNE 10.4 mph - N/A   Overcast
6:33 AM 57.2 °F 53.6 °F 88% 30.14 in 10.0 mi NNE 12.7 mph - N/A   Overcast
6:40 AM 57.2 °F 53.6 °F 88% 30.15 in 10.0 mi NNE 11.5 mph - N/A   Overcast
6:56 AM 57.2 °F 51.8 °F 82% 30.15 in 10.0 mi NE 15.0 mph - N/A   Overcast
6:58 AM 57.0 °F 52.7 °F 85% 30.15 in 10.0 mi NNE 16.1 mph - N/A   Overcast
7:58 AM 57.6 °F 52.5 °F 83% 30.17 in 10.0 mi NNE 15.0 mph - N/A   Overcast
8:23 AM 59.0 °F 51.8 °F 77% 30.18 in 10.0 mi NE 11.5 mph - N/A   Overcast
8:58 AM 59.0 °F 52.3 °F 79% 30.19 in 10.0 mi NE 13.8 mph - N/A   Overcast
9:58 AM 61.2 °F 52.3 °F 73% 30.20 in 10.0 mi NNE 10.4 mph - N/A   Overcast
10:03 AM 62.6 °F 51.8 °F 68% 30.20 in 10.0 mi NNE 10.4 mph - N/A   Overcast
10:50 AM 64.4 °F 51.8 °F 64% 30.20 in 10.0 mi NNE 15.0 mph - N/A   Overcast
10:58 AM 64.0 °F 52.2 °F 65% 30.22 in 10.0 mi NE 11.5 mph - N/A   Overcast
11:58 AM 66.0 °F 52.5 °F 62% 30.20 in 10.0 mi NE 15.0 mph - N/A   Mostly Cloudy
12:58 PM 67.3 °F 52.7 °F 59% 30.19 in 10.0 mi NE 12.7 mph - N/A   Overcast
1:18 PM 68.0 °F 53.6 °F 60% 30.19 in 10.0 mi NNE 12.7 mph - N/A   Overcast
1:23 PM 68.0 °F 53.6 °F 60% 30.19 in 10.0 mi NE 13.8 mph - N/A   Overcast
1:28 PM 68.0 °F 51.8 °F 56% 30.19 in 10.0 mi NNE 13.8 mph - N/A   Overcast
1:58 PM 67.6 °F 52.9 °F 59% 30.19 in 10.0 mi NNE 13.8 mph - N/A   Overcast
2:08 PM 68.0 °F 53.6 °F 60% 30.19 in 10.0 mi NE 9.2 mph - N/A   Overcast
2:58 PM 69.8 °F 52.7 °F 54% 30.19 in 10.0 mi NNE 16.1 mph - N/A   Overcast
3:58 PM 71.1 °F 53.4 °F 54% 30.17 in 10.0 mi NNE 15.0 mph 20.7 mph N/A   Overcast
4:58 PM 69.4 °F 53.4 °F 57% 30.17 in 10.0 mi NE 10.4 mph - N/A   Overcast
5:58 PM 68.5 °F 53.4 °F 58% 30.17 in 10.0 mi NE 15.0 mph - N/A   Overcast
6:58 PM 67.1 °F 53.2 °F 61% 30.15 in 10.0 mi NE 15.0 mph - N/A   Mostly Cloudy
7:58 PM 63.9 °F 53.2 °F 68% 30.17 in 10.0 mi NE 9.2 mph - N/A   Clear
8:58 PM 64.0 °F 53.8 °F 69% 30.20 in 10.0 mi NE 11.5 mph - N/A   Overcast
9:33 PM 64.4 °F 53.6 °F 68% 30.20 in 10.0 mi NE 12.7 mph - N/A   Overcast
9:48 PM 64.4 °F 53.6 °F 68% 30.21 in 10.0 mi NE 11.5 mph - N/A   Overcast
9:58 PM 63.5 °F 53.8 °F 71% 30.22 in 10.0 mi NE 10.4 mph - N/A   Overcast
10:05 PM 62.6 °F 53.6 °F 72% 30.22 in 10.0 mi NE 10.4 mph - N/A Rain Light Rain
10:31 PM 60.8 °F 55.4 °F 82% 30.22 in 10.0 mi NE 8.1 mph - N/A   Light Drizzle
10:32 PM 60.8 °F 55.4 °F 82% 30.22 in 10.0 mi NE 8.1 mph - N/A   Overcast
10:34 PM 60.8 °F 55.4 °F 82% 30.22 in 10.0 mi NE 8.1 mph - N/A   Light Drizzle
10:39 PM 60.8 °F 55.4 °F 82% 30.22 in 10.0 mi NE 8.1 mph - N/A   Light Drizzle
10:45 PM 60.8 °F 55.4 °F 82% 30.22 in 10.0 mi NE 9.2 mph - N/A   Overcast
10:58 PM 61.7 °F 55.9 °F 81% 30.22 in 10.0 mi NNE 10.4 mph - 0.00 in   Overcast
11:18 PM 62.6 °F 55.4 °F 77% 30.21 in 10.0 mi NNE 10.4 mph - N/A   Overcast
11:28 PM 62.6 °F 55.4 °F 77% 30.21 in 10.0 mi NE 10.4 mph - N/A   Overcast
11:58 PM 62.1 °F 54.9 °F 77% 30.22 in 10.0 mi NE 11.5 mph - N/A   Overcast